• MPC Preparation (Info)

  • MPEC 2014-E19 : 2014 DT110

    The following Minor Planet Electronic Circular may be linked-to from your own Web pages, but must not otherwise be redistributed electronically.

    A form allowing access to any MPEC is at the bottom of this page.


    Read MPEC 2014-E18 Read MPEC 2014-E20


    M.P.E.C. 2014-E19                                Issued 2014 Mar. 2, 18:40 UT
    
         The Minor Planet Electronic Circulars contain information on unusual
             minor planets and routine data on comets.  They are published
       on behalf of Commission 20 of the International Astronomical Union by the
              Minor Planet Center, Smithsonian Astrophysical Observatory,
                              Cambridge, MA 02138, U.S.A.
    
                 Prepared using the Tamkin Foundation Computer Network
    
                                  MPC@CFA.HARVARD.EDU
                URL https://www.minorplanetcenter.net/    ISSN 1523-6714
    
                                      2014 DT110
    
    Observations:
         K14DB0T* C2014 02 26.56183 12 07 08.745+04 30 09.03         21.0 wLEE019F51
         K14DB0T  C2014 02 26.57406 12 07 08.052+04 30 35.89         20.9 wLEE019F51
         K14DB0T  C2014 02 27.48267 12 06 20.746+05 03 35.95         21.0 wLEE019F51
         K14DB0T  C2014 02 27.48530 12 06 20.596+05 03 41.77         21.2 wLEE019F51
         K14DB0T  C2014 02 27.49755 12 06 19.882+05 04 08.40         21.0 wLEE019F51
         K14DB0T  C2014 02 27.50722 12 06 19.306+05 04 29.42         20.9 wLEE019F51
         K14DB0T  C2014 02 27.50985 12 06 19.159+05 04 35.21         21.0 wLEE019F51
         K14DB0T  C2014 02 27.51956 12 06 18.589+05 04 56.14         21.1 wLEE019F51
         K14DB0T =C2014 02 27.60559 12 06 13.64 +05 08 02.3          20.7  tEE019568
         K14DB0T =C2014 02 27.60718 12 06 13.55 +05 08 05.8          21.1  tEE019568
         K14DB0T =C2014 02 27.60877 12 06 13.44 +05 08 09.7          20.9  tEE019568
         K14DB0T  C2014 02 28.41024 12 05 31.215+05 37 03.91         20.8 wLEE019F51
         K14DB0T  C2014 02 28.42273 12 05 30.493+05 37 30.80         20.8 wLEE019F51
         K14DB0T  C2014 02 28.43510 12 05 29.761+05 37 57.53         20.8 wLEE019F51
         K14DB0T  C2014 02 28.44748 12 05 29.035+05 38 24.34         20.8 wLEE019F51
         K14DB0T KC2014 02 28.45284 12 05 28.20 +05 38 34.0          19.7 RoEE019291
         K14DB0T KC2014 02 28.45551 12 05 28.05 +05 38 39.4          20.2 RoEE019291
         K14DB0T KC2014 02 28.45820 12 05 27.90 +05 38 45.2          20.5 RoEE019291
         K14DB0T KC2014 03 02.05393012 04 00.22 +06 35 38.7          20.7 VuEE019I93
         K14DB0T KC2014 03 02.06536512 03 59.49 +06 36 02.3          20.8 VuEE019I93
         K14DB0T KC2014 03 02.07511512 03 58.89 +06 36 23.4          20.6 VuEE019I93
    
    Observer details:
    291 LPL/Spacewatch II.  Observer J. V. Scotti.  1.8-m f/2.7 reflector + CCD.
    568 Mauna Kea.  Observers P. Veres, B. Bolin.  Measurer P. Veres.  2.24-m
        University of Hawaii reflector.
    F51 Pan-STARRS 1, Haleakala.  Observers N. Primak, A. Schultz, T. Goggia,
        M. Willman.  Measurer PS1 Science Consortium.  1.8-m Ritchey-Chretien
        + CCD.
    I93 St Pardon de Conques.  Observer F. Losse.  0.40-m f/3.7 reflector + CCD.
    
    Orbital elements:
    2014 DT110                                               Earth MOID = 0.4105 AU
    Epoch 2013 Nov. 4.0 TT = JDT 2456600.5                  MPC
    M 359.50001              (2000.0)            P               Q
    n   0.24210344     Peri.  280.43683     +0.08789990     -0.98751245
    a   2.5495806      Node   162.79472     +0.99523129     +0.09263274
    e   0.5492462      Incl.   26.23101     -0.04228805     +0.12742974
    P   4.07           H   19.4           G   0.15           U   6
    Residuals in seconds of arc
    140226 F51  0.1-  0.1-    140227 F51  0.1-  0.0     140228 F51  0.1-  0.1+
    140226 F51  0.1-  0.1+    140227 568  0.1+  0.6-    140228 291  0.1+  0.4+
    140227 F51  0.2+  0.0     140227 568  0.1+  0.5-    140228 291  0.2+  0.1+
    140227 F51  0.2+  0.1+    140227 568  0.2-  0.1-    140228 291  0.3+  0.1+
    140227 F51  0.1+  0.1+    140228 F51  0.1-  0.0     140302 I93  0.6+  0.3+
    140227 F51  0.1-  0.1+    140228 F51  0.0   0.0     140302 I93  0.1-  0.4-
    140227 F51  0.0   0.2+    140228 F51  0.1-  0.0     140302 I93  0.4-  0.0
    
    Ephemeris:
    2014 DT110               a,e,i = 2.55, 0.55, 26                  q = 1.1492
    Date    TT    R. A. (2000) Decl.     Delta      r     Elong.  Phase     V
    2014 01 31    12 17 11.1 -10 49 58   0.7282  1.5051   122.2    33.6    21.0
    ...
    2014 02 15    12 15 08.3 -02 34 28   0.7122  1.6075   141.5    22.5    20.8
    ...
    2014 02 23    12 10 04.2 +02 19 22   0.7217  1.6634   152.5    15.9    20.7
    ...
    2014 03 01    12 04 58.7 +05 58 14   0.7394  1.7056   160.5    11.2    20.6
    2014 03 02    12 04 03.2 +06 33 49   0.7433  1.7127   161.7    10.5    20.6
    2014 03 03    12 03 06.8 +07 09 03   0.7475  1.7197   162.9     9.8    20.6
    ...
    2014 03 09    11 57 15.9 +10 30 27   0.7785  1.7622   168.3     6.5    20.6
    ...
    2014 03 17    11 49 29.3 +14 24 08   0.8354  1.8188   167.1     7.0    20.8
    ...
    2014 04 01    11 37 41.8 +19 32 25   0.9862  1.9245   151.6    14.3    21.6
    
    A. U. Tomatic                (C) Copyright 2014 MPC           M.P.E.C. 2014-E19
    

    Read MPEC 2014-E18 Read MPEC 2014-E20


    MPEC number:

    Enter an MPEC number in one of the following forms:

    • 1997-B01 (the full form)
    • J97B01 (the packed version of the full form)
    • B01 (the abbreviated form)